Manhattan, KS

10:21 AM CST on February 24, 2018 (GMT -0600)
Manhattan Regional

Weather History for KMHK - August, 2012

Change the Weather History Date:

Thursday, August 16, 2012

  Actual Average Record
Temperature  
Mean Temperature 71 °F 77 °F  
Max Temperature 83 °F 90 °F 102 °F (2003)
Min Temperature 58 °F 65 °F 55 °F (2004)
Degree Days  
Heating Degree Days 0 0  
Month to date heating degree days 0 0  
Since 1 June heating degree days 13 12  
Since 1 July heating degree days 0 1  
Cooling Degree Days 6 12  
Month to date cooling degree days 192 215  
Year to date cooling degree days 1505 1021  
Since 1 June cooling degree days 1225 921  
Growing Degree Days 22 (Base 50)    
Moisture  
Dew Point 54 °F    
Average Humidity 56    
Maximum Humidity 74    
Minimum Humidity 38    
Precipitation  
Precipitation 0.00 in 0.16 in 0.58 in (2017)
Month to date precipitation 1.09 1.88  
Year to date precipitation 13.72 22.14  
Sea Level Pressure  
Sea Level Pressure 29.98 in    
Wind  
Wind Speed 7 mph (North)    
Max Wind Speed 20 mph    
Max Gust Speed 25 mph    
Visibility 10 miles    
Events      
T = Trace of Precipitation, MM = Missing Value Source: NWS Daily Summary

Daily Weather History Graph

Daily Weather History Graph

Search for Another Location

Airport or City:

Trip Planner

Search our weather history database for the weather conditions in past years. The results will help you decide how hot, cold, wet, or windy it might be!

Date:

Astronomy

Aug. 16, 2012 Rise Set
Actual Time 6:41 AM CDT 8:19 PM CDT
Civil Twilight 6:12 AM CDT 8:48 PM CDT
Nautical Twilight 5:38 AM CDT 9:22 PM CDT
Astronomical Twilight 5:01 AM CDT 9:58 PM CDT
Moon 5:41 AM CDT (8/16) 7:30 PM CDT (8/16)
Length of Visible Light 14h 35m
Length of Day
13h 38m
Waning Crescent, 1% of the Moon is Illuminated
Aug 16
Waning Crescent
Aug 17
New
Aug 24
First Quarter
Aug 31
Full
Sep 8
Last Quarter

Hourly Weather History & Observations

Time (CDT) Temp. Heat Index Dew Point Humidity Pressure Visibility Wind Dir Wind Speed Gust Speed Precip Events Conditions
12:52 AM 78.1 °F - 68.0 °F 71% 29.78 in 10.0 mi SSW 6.9 mph - N/A   Clear
1:52 AM 81.0 °F 83.3 °F 66.9 °F 62% 29.77 in 10.0 mi SW 10.4 mph - N/A   Clear
2:52 AM 82.0 °F 84.5 °F 66.9 °F 60% 29.78 in 10.0 mi SW 11.5 mph - N/A   Clear
3:52 AM 77.0 °F - 68.0 °F 74% 29.82 in 10.0 mi West 3.5 mph - N/A   Clear
4:52 AM 71.1 °F - 62.1 °F 73% 29.86 in 10.0 mi North 5.8 mph 17.3 mph N/A   Clear
5:52 AM 69.1 °F - 59.0 °F 70% 29.91 in 10.0 mi Calm Calm - N/A   Clear
6:52 AM 68.0 °F - 57.0 °F 68% 29.96 in 10.0 mi North 4.6 mph - N/A   Clear
7:52 AM 68.0 °F - 57.0 °F 68% 29.97 in 10.0 mi NNE 6.9 mph - N/A   Clear
8:52 AM 71.1 °F - 55.9 °F 59% 30.01 in 10.0 mi NNE 10.4 mph 21.9 mph N/A   Clear
9:52 AM 72.0 °F - 55.0 °F 55% 30.03 in 10.0 mi NNE 16.1 mph 23.0 mph N/A   Clear
10:52 AM 73.0 °F - 53.1 °F 49% 30.04 in 10.0 mi North 16.1 mph 21.9 mph N/A   Clear
11:52 AM 73.9 °F - 52.0 °F 46% 30.05 in 10.0 mi NNE 8.1 mph 18.4 mph N/A   Clear
12:52 PM 75.0 °F - 48.9 °F 40% 30.05 in 10.0 mi NNE 11.5 mph 20.7 mph N/A   Partly Cloudy
1:52 PM 73.9 °F - 48.0 °F 40% 30.07 in 10.0 mi North 12.7 mph 19.6 mph N/A   Clear
2:52 PM 75.0 °F - 48.9 °F 40% 30.05 in 10.0 mi North 11.5 mph 18.4 mph N/A   Clear
3:52 PM 69.1 °F - 45.0 °F 42% 30.04 in 10.0 mi NNE 13.8 mph 25.3 mph N/A   Clear
4:52 PM 72.0 °F - 50.0 °F 46% 30.04 in 10.0 mi North 10.4 mph 16.1 mph N/A   Clear
5:52 PM 73.4 °F - 51.8 °F 47% 30.05 in 10.0 mi North 4.6 mph - N/A   Clear
6:52 PM 73.9 °F - 50.0 °F 43% 30.01 in 10.0 mi NNE 4.6 mph - N/A   Clear
7:52 PM 72.0 °F - 48.0 °F 43% 30.02 in 10.0 mi North 8.1 mph - N/A   Clear
8:52 PM 69.1 °F - 48.0 °F 47% 30.03 in 10.0 mi North 3.5 mph - N/A   Clear
9:52 PM 66.0 °F - 48.0 °F 52% 30.07 in 10.0 mi Calm Calm - N/A   Clear
10:52 PM 63.0 °F - 48.0 °F 58% 30.09 in 10.0 mi North 3.5 mph - N/A   Clear
11:52 PM 60.1 °F - 50.0 °F 69% 30.12 in 10.0 mi Calm Calm - N/A   Clear